1512993601.07,54929,3.75,71828.3,-2.75,-4.17,-4.25,0,*52
1512993602.3,54930,3.75,71814.5,-2.75,-4.25,-4.25,0,*5B
1512993603.53,54931,3.75,71822.0,-2.75,-4.25,-4.29,0,*56
1512993604.77,54932,3.75,71776.8,-2.77,-3.91,-3.91,0,*5B
1512993606.02,54933,3.75,71772.5,-2.75,-3.67,-3.75,0,*5B
1512993607.25,54934,3.75,71786.0,-2.75,-3.91,-3.79,0,*59
1512993608.54,54935,3.75,71788.8,-2.75,-4.01,-4.01,0,*5E
1512993609.79,54936,3.75,71768.3,-2.75,-4.05,-4.01,0,*59
1512993610.98,54937,3.75,71798.5,-2.73,-4.17,-4.05,0,*59
1512993612.18,54938,3.75,71784.5,-2.73,-4.17,-4.25,0,*54
1512993613.38,54939,3.75,71698.0,-2.73,-4.37,-4.37,0,*54
1512993614.61,54940,3.75,71642.5,-2.75,-4.41,-4.57,0,*5B
1512993615.83,54941,3.75,71640.8,-2.75,-4.53,-4.53,0,*5D
1512993617.06,54942,3.75,71670.8,-2.75,-4.41,-4.41,0,*5E
1512993618.29,54943,3.75,71688.0,-2.75,-4.29,-4.29,0,*5F
1512993619.52,54944,3.75,71686.5,-2.77,-4.33,-4.21,0,*59
1512993620.75,54945,3.75,71638.5,-2.75,-4.29,-4.37,0,*56
1512993621.97,54946,3.75,71670.0,-2.77,-4.41,-4.33,0,*5D
1512993623.19,54947,3.75,71742.0,-2.77,-4.21,-4.17,0,*5C
1512993624.42,54948,3.75,71668.3,-2.77,-4.21,-4.29,0,*5E
1512993625.64,54949,3.75,71642.5,-2.77,-4.41,-4.49,0,*5F
1512993626.87,54950,3.75,71644.3,-2.77,-4.57,-4.57,0,*5F
1512993628.1,54951,3.75,71680.8,-2.77,-4.29,-4.21,0,*56
1512993629.32,54952,3.75,71754.0,-2.77,-3.95,-3.91,0,*59
1512993630.54,54953,3.75,71784.3,-2.77,-4.05,-3.95,0,*52
1512993631.77,54954,3.75,71872.8,-2.75,-4.13,-4.13,0,*59
1512993633.04,54955,3.75,71740.0,-2.77,-3.59,-3.67,0,*57
1512993634.3,54956,3.75,71606.0,-2.77,-3.67,-3.67,0,*59
1512993635.54,54957,3.75,71722.8,-2.75,-3.79,-3.75,0,*56
1512993636.77,54958,3.75,71786.5,-2.77,-3.91,-3.95,0,*53
1512993638.0,54959,3.75,71798.8,-2.77,-3.91,-3.83,0,*55
1512993639.23,54960,3.75,71834.3,-2.75,-3.75,-3.79,0,*52
1512993640.48,54961,3.75,71850.3,-2.77,-3.71,-3.79,0,*55
1512993641.71,54962,3.75,71814.5,-2.75,-3.87,-3.91,0,*5B
1512993642.99,54963,3.75,71836.3,-2.75,-4.01,-4.01,0,*5D
1512993644.25,54964,3.75,71858.0,-2.75,-4.01,-4.13,0,*59
1512993645.48,54965,3.75,71858.5,-2.75,-4.13,-4.13,0,*5B
1512993646.71,54966,3.75,71844.0,-2.75,-4.25,-4.25,0,*58
1512993647.94,54967,3.75,71792.0,-2.75,-4.29,-4.37,0,*56
1512993649.16,54968,3.75,71768.8,-2.77,-4.29,-4.33,0,*5F
1512993650.39,54969,3.75,71784.8,-2.75,-4.29,-4.29,0,*57
1512993651.62,54970,3.75,71754.5,-2.75,-4.29,-4.29,0,*5F
1512993652.84,54971,3.75,71744.8,-2.75,-4.37,-4.41,0,*5F
1512993654.06,54972,3.75,71704.5,-2.77,-4.41,-4.41,0,*5F
1512993655.29,54973,3.75,71708.3,-2.75,-4.29,-4.29,0,*5C
1512993656.52,54974,3.75,71732.8,-2.75,-4.37,-4.29,0,*54
1512993657.74,54975,3.75,71782.3,-2.77,-4.29,-4.29,0,*58
1512993658.98,54976,3.75,71776.3,-2.75,-3.91,-3.91,0,*59
1512993660.21,54977,3.75,71810.0,-2.77,-3.91,-3.79,0,*5C
1512993661.47,54978,3.75,71868.8,-2.77,-3.67,-3.71,0,*52
1512993662.74,54979,3.75,71884.8,-2.75,-3.63,-3.67,0,*52
1512993664.02,54980,3.75,71912.0,-2.75,-3.63,-3.59,0,*59
1512993665.29,54981,3.75,71846.0,-2.75,-3.47,-3.51,0,*56
1512993666.53,54982,3.75,71828.8,-2.73,-3.55,-3.55,0,*54
1512993667.8,54983,3.75,71796.0,-2.75,-3.63,-3.67,0,*57
1512993669.04,54984,3.75,71780.3,-2.75,-3.75,-3.79,0,*58
1512993670.26,54985,3.75,71778.5,-2.75,-3.87,-3.87,0,*55
1512993671.5,54986,3.75,71724.8,-2.75,-3.79,-3.79,0,*56
1512993672.78,54987,3.75,71644.8,-2.75,-4.01,-4.01,0,*57
1512993674.01,54988,3.75,71564.0,-2.75,-4.25,-4.25,0,*58
1512993675.27,54989,3.75,71732.3,-2.75,-4.05,-4.01,0,*5D
1512993676.5,54990,3.75,71746.8,-2.75,-3.87,-3.91,0,*56
1512993677.75,54991,3.75,71714.3,-2.75,-4.01,-4.13,0,*53
1512993679.01,54992,3.75,71758.0,-2.75,-4.01,-4.05,0,*57
1512993680.27,54993,3.75,71766.0,-2.75,-3.91,-4.01,0,*5C
1512993681.51,54994,3.75,71766.3,-2.75,-3.79,-3.79,0,*55
1512993682.71,54995,3.75,71734.5,-2.73,-3.79,-3.87,0,*53
1512993683.92,54996,3.75,71734.8,-2.73,-3.91,-3.91,0,*51
1512993685.17,54997,3.75,71756.3,-2.73,-4.01,-4.01,0,*50
1512993686.37,54998,3.75,71738.3,-2.73,-4.13,-4.13,0,*5F
1512993687.56,54999,3.75,71724.8,-2.73,-4.17,-4.17,0,*5E
1512993688.76,55000,3.75,71718.8,-2.73,-4.25,-4.25,0,*56
1512993689.96,55001,3.75,71706.8,-2.73,-4.29,-4.37,0,*58
1512993691.16,55002,3.75,71734.5,-2.73,-4.17,-4.17,0,*54
1512993692.39,55003,3.75,71782.3,-2.75,-3.79,-3.91,0,*55
1512993693.62,55004,3.75,71726.5,-2.75,-3.75,-3.87,0,*59
1512993694.82,55005,3.75,71402.3,-2.73,-4.37,-4.29,0,*5C
1512993696.01,55006,3.75,71326.8,-2.73,-4.45,-4.53,0,*57
1512993697.24,55007,3.75,71580.5,-2.77,-4.33,-4.29,0,*5E
1512993698.47,55008,3.75,71622.5,-2.75,-4.25,-4.25,0,*58
1512993699.7,55009,3.75,71642.8,-2.75,-4.25,-4.25,0,*59
1512993700.93,55010,3.75,71678.5,-2.75,-4.25,-4.25,0,*51
1512993702.16,55011,3.75,71684.5,-2.77,-4.21,-4.17,0,*57
1512993703.36,55012,3.75,71744.3,-2.73,-3.79,-3.79,0,*55
1512993704.63,55013,3.75,71780.0,-2.75,-3.67,-3.67,0,*52
1512993705.9,55014,3.75,71800.3,-2.75,-3.63,-3.63,0,*55
1512993707.17,55015,3.75,71796.8,-2.75,-3.55,-3.55,0,*54
1512993708.4,55016,3.75,71796.0,-2.75,-3.39,-3.39,0,*57
1512993709.67,55017,3.75,71792.0,-2.75,-3.47,-3.51,0,*51
1512993710.91,55018,3.75,71812.0,-2.73,-3.47,-3.51,0,*58
1512993712.12,55019,3.75,71814.3,-2.69,-3.31,-3.35,0,*51
1512993713.37,55020,3.75,71814.8,-2.69,-3.47,-3.47,0,*5F
1512993714.61,55021,3.75,71830.0,-2.73,-3.51,-3.55,0,*51
1512993715.85,55022,3.75,71830.3,-2.69,-3.43,-3.47,0,*59
1512993717.06,55023,3.75,71810.3,-2.69,-3.31,-3.35,0,*58
1512993718.25,55024,3.75,71814.0,-2.69,-3.19,-3.23,0,*52
1512993719.46,55025,3.75,71830.0,-2.67,-3.23,-3.23,0,*54
1512993720.69,55026,3.75,71844.3,-2.67,-3.35,-3.35,0,*57
1512993721.89,55027,3.75,71828.3,-2.65,-3.31,-3.27,0,*53
1512993723.11,55028,3.75,71822.0,-2.65,-3.43,-3.39,0,*56
1512993724.31,55029,3.75,71824.5,-2.65,-3.31,-3.31,0,*5A
1512993725.5,55030,3.75,71830.5,-2.65,-3.31,-3.39,0,*5A
1512993726.72,55031,3.75,71812.0,-2.65,-3.39,-3.43,0,*5E
1512993727.94,55032,3.75,71844.0,-2.61,-3.43,-3.39,0,*59
1512993729.17,55033,3.75,71852.0,-2.63,-3.31,-3.31,0,*57
1512993730.41,55034,3.75,71868.8,-2.61,-3.51,-3.51,0,*52
1512993731.68,55035,3.75,71872.5,-2.63,-3.43,-3.43,0,*51
1512993732.88,55036,3.75,71836.5,-2.61,-3.39,-3.39,0,*50
1512993734.14,55037,3.75,71846.5,-2.63,-3.47,-3.47,0,*53
1512993735.37,55038,3.75,71820.8,-2.61,-3.67,-3.75,0,*5D
1512993736.57,55039,3.75,71818.5,-2.61,-3.91,-3.91,0,*5F
1512993737.78,55040,3.75,71858.0,-2.61,-3.91,-3.91,0,*51
1512993739.01,55041,3.75,71848.3,-2.63,-3.95,-3.95,0,*52
1512993740.21,55042,3.75,71904.8,-2.61,-3.79,-3.75,0,*5F
1512993741.42,55043,3.75,71876.5,-2.61,-3.75,-3.75,0,*52
1512993742.63,55044,3.75,71870.3,-2.61,-3.79,-3.75,0,*59
1512993743.86,55045,3.75,71862.3,-2.63,-3.79,-3.91,0,*50
1512993745.1,55046,3.75,71838.8,-2.61,-3.67,-3.67,0,*57
1512993746.34,55047,3.75,71800.3,-2.61,-3.43,-3.43,0,*56
1512993747.54,55048,3.75,71806.8,-2.61,-3.39,-3.39,0,*59
1512993748.8,55049,3.75,71798.5,-2.59,-3.43,-3.51,0,*50
1512993750.07,55050,3.75,71780.3,-2.59,-3.63,-3.55,0,*5E
1512993751.34,55051,3.75,71776.0,-2.59,-3.51,-3.51,0,*5A
1512993752.61,55052,3.75,71758.3,-2.59,-3.55,-3.63,0,*5C
1512993753.87,55053,3.75,71744.8,-2.59,-3.63,-3.67,0,*5C
1512993755.14,55054,3.75,71734.8,-2.59,-3.43,-3.43,0,*5F
1512993756.39,55055,3.75,71748.8,-2.59,-3.39,-3.51,0,*50
1512993757.65,55056,3.75,71748.0,-2.59,-3.43,-3.43,0,*5D
1512993758.9,55057,3.75,71730.3,-2.59,-3.39,-3.43,0,*51
1512993760.12,55058,3.75,71728.8,-2.59,-3.39,-3.39,0,*53
1512993761.39,55059,3.75,71752.0,-2.59,-3.43,-3.51,0,*51
1512993762.63,55060,3.75,71646.8,-2.57,-3.63,-3.71,0,*55
1512993763.86,55061,3.75,71398.3,-2.59,-4.33,-4.41,0,*5C
1512993765.05,55062,3.75,71442.0,-2.57,-4.53,-4.61,0,*55
1512993766.27,55063,3.75,71488.3,-2.59,-4.53,-4.57,0,*5F
1512993767.49,55064,3.75,71532.0,-2.59,-4.41,-4.45,0,*58
1512993768.71,55065,3.75,71484.8,-2.61,-4.61,-4.69,0,*5E
1512993769.93,55066,3.75,71616.8,-2.63,-4.37,-4.37,0,*57
1512993771.13,55067,3.75,71604.3,-2.61,-4.33,-4.33,0,*54
1512993772.35,55068,3.75,71606.8,-2.63,-4.45,-4.61,0,*5F
1512993773.57,55069,3.75,71618.0,-2.63,-4.29,-4.33,0,*53
1512993774.8,55070,3.75,71656.8,-2.63,-4.33,-4.29,0,*5B
1512993776.03,55071,3.75,71674.3,-2.63,-4.29,-4.29,0,*51
1512993777.25,55072,3.75,71640.8,-2.63,-4.37,-4.37,0,*52
1512993778.43,55073,3.75,71674.0,-2.65,-4.45,-4.45,0,*55
1512993779.62,55074,3.75,71658.0,-2.65,-4.45,-4.45,0,*52
1512993780.8,55075,3.75,71648.0,-2.65,-4.45,-4.45,0,*53
1512993781.99,55076,3.75,71636.3,-2.65,-4.45,-4.49,0,*5C
1512993783.21,55077,3.75,71606.8,-2.67,-4.49,-4.49,0,*53
1512993784.43,55078,3.75,71622.8,-2.67,-4.61,-4.61,0,*5C
1512993785.62,55079,3.75,71596.8,-2.65,-4.45,-4.45,0,*5F
1512993786.84,55080,3.75,71658.8,-2.67,-4.37,-4.41,0,*5A
1512993788.06,55081,3.75,71668.0,-2.67,-4.33,-4.33,0,*5A
1512993789.29,55082,3.75,71716.3,-2.67,-4.25,-4.25,0,*59
1512993790.52,55083,3.75,71786.0,-2.67,-4.25,-4.25,0,*58
1512993791.75,55084,3.75,71794.5,-2.67,-4.21,-4.25,0,*5B
1512993792.96,55085,3.75,71774.8,-2.69,-4.25,-4.33,0,*57
1512993794.17,55086,3.75,71788.3,-2.69,-4.21,-4.33,0,*50
1512993795.37,55087,3.75,71754.3,-2.69,-4.41,-4.49,0,*5A
1512993796.57,55088,3.75,71762.8,-2.69,-4.25,-4.33,0,*5A
1512993797.77,55089,3.75,71780.8,-2.69,-4.05,-4.05,0,*5C
1512993799.0,55090,3.75,71782.3,-2.69,-3.87,-4.01,0,*5D
1512993800.26,55091,3.75,71788.8,-2.67,-3.95,-4.01,0,*51
1512993801.46,55092,3.75,71790.0,-2.69,-4.09,-4.09,0,*56
1512993802.65,55093,3.75,71796.0,-2.73,-4.37,-4.37,0,*5C
1512993803.87,55094,3.75,71790.8,-2.69,-4.21,-4.21,0,*50
1512993805.08,55095,3.75,71792.8,-2.69,-3.83,-3.83,0,*51
1512993806.33,55096,3.75,71790.8,-2.69,-3.63,-3.71,0,*51
1512993807.53,55097,3.75,71814.0,-2.73,-3.75,-3.75,0,*58
1512993808.78,55098,3.75,71826.0,-2.69,-3.47,-3.51,0,*5B
1512993810.03,55099,3.75,71816.8,-2.69,-3.47,-3.51,0,*5A
1512993811.31,55100,3.75,71832.8,-2.67,-3.59,-3.59,0,*52
1512993812.58,55101,3.75,71826.3,-2.67,-3.51,-3.51,0,*53
1512993813.82,55102,3.75,71828.5,-2.65,-3.51,-3.51,0,*52
1512993815.08,55103,3.75,71812.3,-2.67,-3.71,-3.71,0,*51
1512993816.31,55104,3.75,71808.5,-2.67,-3.95,-3.95,0,*56
1512993817.55,55105,3.75,71824.3,-2.65,-3.59,-3.67,0,*58
1512993818.78,55106,3.75,71852.5,-2.67,-3.95,-3.87,0,*57
1512993819.97,55107,3.75,71784.5,-2.65,-4.17,-4.17,0,*57
1512993821.19,55108,3.75,71776.0,-2.67,-4.13,-4.09,0,*51
1512993822.42,55109,3.75,71838.5,-2.67,-3.95,-3.87,0,*58
1512993823.62,55110,3.75,71804.5,-2.65,-3.91,-3.95,0,*55
1512993824.85,55111,3.75,71754.5,-2.67,-4.13,-4.13,0,*52
1512993826.07,55112,3.75,71798.8,-2.67,-3.83,-3.87,0,*55
1512993827.27,55113,3.75,71702.5,-2.65,-4.09,-4.09,0,*52
1512993828.46,55114,3.75,71752.3,-2.65,-4.09,-4.09,0,*55
1512993829.69,55115,3.75,71800.8,-2.67,-4.13,-4.13,0,*56
1512993830.89,55116,3.75,71818.8,-2.65,-3.91,-3.91,0,*57
1512993832.12,55117,3.75,71814.8,-2.67,-3.95,-3.95,0,*54
1512993833.34,55118,3.75,71804.3,-2.67,-3.87,-3.87,0,*5B
1512993834.57,55119,3.75,71802.0,-2.67,-3.95,-3.95,0,*5A
1512993835.8,55120,3.75,71804.5,-2.67,-3.75,-3.83,0,*59
1512993837.05,55121,3.75,71806.0,-2.67,-3.87,-4.01,0,*58
1512993838.26,55122,3.75,71850.8,-2.65,-3.79,-3.79,0,*50
1512993839.48,55123,3.75,71818.5,-2.65,-3.75,-3.71,0,*55
1512993840.72,55124,3.75,71810.8,-2.65,-3.47,-3.47,0,*56
1512993841.96,55125,3.75,71780.8,-2.65,-3.55,-3.59,0,*5B
1512993843.2,55126,3.75,71868.3,-2.65,-3.55,-3.59,0,*58
1512993844.44,55127,3.75,71850.5,-2.65,-3.47,-3.55,0,*56
1512993845.69,55128,3.75,71788.3,-2.65,-3.47,-3.47,0,*5A
1512993846.89,55129,3.75,71758.3,-2.65,-3.83,-3.79,0,*5E
1512993848.15,55130,3.75,71830.0,-2.63,-3.71,-3.71,0,*55
1512993849.42,55131,3.75,71836.0,-2.63,-3.55,-3.55,0,*54
1512993850.66,55132,3.75,71804.5,-2.61,-3.51,-3.55,0,*51
1512993851.9,55133,3.75,71850.3,-2.61,-3.51,-3.51,0,*54
1512993853.17,55134,3.75,71794.3,-2.63,-3.67,-3.71,0,*56
1512993854.4,55135,3.75,71462.3,-2.61,-3.79,-4.01,0,*5A
1512993855.59,55136,3.75,71318.3,-2.61,-4.13,-4.45,0,*52
1512993856.84,55137,3.75,71358.8,-2.63,-4.29,-4.93,0,*53
1512993858.08,55138,3.75,71362.0,-2.63,-4.69,-5.39,0,*59
1512993859.31,55139,3.75,71498.8,-2.65,-4.57,-5.23,0,*58
1512993860.51,55140,3.75,71574.0,-2.65,-4.61,-5.47,0,*51
1512993861.74,55141,3.75,71572.8,-2.65,-4.93,-5.65,0,*5D
1512993862.99,55142,3.75,71622.5,-2.65,-4.81,-5.07,0,*59
1512993864.19,55143,3.75,71618.0,-2.65,-4.33,-4.49,0,*5A
1512993865.42,55144,3.75,71610.0,-2.67,-4.21,-4.25,0,*56
1512993866.62,55145,3.75,71610.8,-2.65,-3.95,-3.95,0,*51
1512993867.85,55146,3.75,71614.0,-2.63,-3.83,-3.83,0,*54
1512993869.09,55147,3.75,71646.8,-2.63,-3.83,-3.91,0,*56
1512993870.31,55148,3.75,71618.8,-2.63,-4.05,-4.05,0,*5A
1512993871.54,55149,3.75,71628.3,-2.63,-3.83,-3.91,0,*58
1512993872.81,55150,3.75,71664.0,-2.63,-3.67,-3.67,0,*53
1512993874.06,55151,3.75,71668.3,-2.63,-3.71,-3.79,0,*5A
1512993875.26,55152,3.75,71676.0,-2.65,-3.83,-3.91,0,*54
1512993876.5,55153,3.75,71696.3,-2.63,-3.91,-3.91,0,*50
1512993877.73,55154,3.75,71702.3,-2.63,-3.91,-3.91,0,*57
1512993878.96,55155,3.75,71744.8,-2.63,-3.95,-3.95,0,*56
1512993880.19,55156,3.75,71752.5,-2.63,-3.91,-3.91,0,*55
1512993881.44,55157,3.75,71776.0,-2.63,-3.71,-3.79,0,*5C
1512993882.71,55158,3.75,71758.0,-2.63,-3.67,-3.71,0,*5C
1512993883.95,55159,3.75,71756.3,-2.63,-3.71,-3.83,0,*57
1512993885.18,55160,3.75,71790.5,-2.63,-3.91,-3.91,0,*50
1512993886.39,55161,3.75,71802.8,-2.61,-3.79,-3.79,0,*53
1512993887.62,55162,3.75,71828.5,-2.63,-3.91,-3.91,0,*52
1512993888.83,55163,3.75,71820.8,-2.61,-3.79,-3.79,0,*51
1512993890.09,55164,3.75,71802.5,-2.63,-3.55,-3.55,0,*54
1512993891.34,55165,3.75,71776.0,-2.61,-3.43,-3.43,0,*57
1512993892.58,55166,3.75,71774.3,-2.61,-3.51,-3.51,0,*54
1512993893.77,55167,3.75,71792.8,-2.61,-3.87,-3.87,0,*55
1512993894.98,55168,3.75,71808.0,-2.61,-3.79,-3.79,0,*5A
1512993896.19,55169,3.75,71810.0,-2.61,-3.79,-3.79,0,*5B
1512993897.4,55170,3.75,71806.3,-2.61,-3.39,-3.43,0,*5E
1512993898.65,55171,3.75,71822.3,-2.61,-3.51,-3.55,0,*56
1512993899.88,55172,3.75,71822.3,-2.61,-3.43,-3.55,0,*56
1512993901.13,55173,3.75,71840.8,-2.59,-3.43,-3.39,0,*56
1512993902.37,55174,3.75,71832.8,-2.57,-3.47,-3.59,0,*5D
1512993903.57,55175,3.75,71856.0,-2.57,-3.39,-3.39,0,*53
1512993904.79,55176,3.75,71856.5,-2.59,-3.35,-3.39,0,*52
1512993906.01,55177,3.75,71848.5,-2.57,-3.39,-3.47,0,*58
1512993907.24,55178,3.75,71848.5,-2.57,-3.47,-3.47,0,*5E
1512993908.51,55179,3.75,71842.8,-2.59,-3.43,-3.51,0,*52
1512993909.72,55180,3.75,71846.5,-2.57,-3.39,-3.47,0,*50
1512993910.97,55181,3.75,71848.3,-2.57,-3.51,-3.59,0,*50
1512993912.24,55182,3.75,71866.5,-2.59,-3.43,-3.43,0,*55
1512993913.43,55183,3.75,71794.0,-2.57,-4.09,-4.13,0,*51
1512993914.63,55184,3.75,71758.3,-2.57,-4.29,-4.25,0,*51
1512993915.85,55185,3.75,71696.8,-2.59,-4.41,-4.53,0,*51
1512993917.07,55186,3.75,71746.3,-2.59,-4.53,-4.57,0,*55
1512993918.3,55187,3.75,71684.0,-2.59,-4.33,-4.41,0,*55
1512993919.53,55188,3.75,71704.5,-2.59,-4.33,-4.33,0,*5F
1512993920.75,55189,3.75,71732.8,-2.59,-4.25,-4.29,0,*52
1512993921.95,55190,3.75,71786.5,-2.57,-4.13,-4.13,0,*58
1512993923.18,55191,3.75,71768.5,-2.61,-4.01,-4.05,0,*58
1512993924.37,55192,3.75,71746.8,-2.61,-4.13,-4.13,0,*5F
1512993925.6,55193,3.75,71710.3,-2.63,-4.29,-4.21,0,*54
1512993926.81,55194,3.75,71746.8,-2.61,-4.17,-4.21,0,*5C
1512993928.04,55195,3.75,71680.3,-2.63,-4.21,-4.21,0,*5A
1512993929.23,55196,3.75,71724.5,-2.61,-4.17,-4.17,0,*5B
1512993930.45,55197,3.75,71746.8,-2.63,-4.37,-4.37,0,*58
1512993931.68,55198,3.75,71766.8,-2.63,-4.17,-4.21,0,*52
1512993932.9,55199,3.75,71734.5,-2.63,-4.17,-4.17,0,*56
1512993934.12,55200,3.75,71756.8,-2.63,-4.05,-3.95,0,*5B
1512993935.34,55201,3.75,71754.5,-2.63,-4.17,-4.17,0,*54
1512993936.54,55202,3.75,71720.0,-2.61,-4.13,-4.25,0,*50
1512993937.77,55203,3.75,71690.8,-2.63,-4.09,-4.21,0,*5C
1512993938.99,55204,3.75,71716.8,-2.63,-4.17,-4.29,0,*5C
1512993940.21,55205,3.75,71722.0,-2.63,-4.17,-4.17,0,*50
1512993941.44,55206,3.75,71694.8,-2.63,-3.83,-3.83,0,*53
1512993942.72,55207,3.75,71688.5,-2.63,-3.59,-3.59,0,*52
1512993943.96,55208,3.75,71688.0,-2.61,-3.55,-3.43,0,*58
1512993945.23,55209,3.75,71696.3,-2.63,-3.59,-3.71,0,*56
1512993946.47,55210,3.75,71668.5,-2.61,-3.43,-3.43,0,*56
1512993947.71,55211,3.75,71744.8,-2.61,-3.43,-3.43,0,*57
1512993948.93,55212,3.75,71710.0,-2.61,-3.51,-3.79,0,*5E
1512993950.13,55213,3.75,71710.8,-2.61,-3.87,-4.17,0,*5B
1512993951.35,55214,3.75,71738.0,-2.61,-4.29,-4.81,0,*50
1512993952.61,55215,3.75,71728.8,-2.59,-4.65,-5.23,0,*5B
1512993953.88,55216,3.75,71758.5,-2.59,-5.11,-5.69,0,*54
1512993955.15,55217,3.75,71758.8,-2.59,-5.73,-5.81,0,*57
1512993956.43,55218,3.75,71790.5,-2.59,-5.31,-5.11,0,*57
1512993957.68,55219,3.75,71792.5,-2.59,-5.03,-4.53,0,*50
1512993958.9,55220,3.75,71776.5,-2.59,-4.13,-3.79,0,*55
1512993960.14,55221,3.75,71842.8,-2.57,-3.63,-3.51,0,*50
1512993961.36,55222,3.75,71802.5,-2.57,-3.75,-3.63,0,*55
1512993962.56,55223,3.75,71820.5,-2.57,-3.75,-3.75,0,*53
1512993963.79,55224,3.75,71782.5,-2.59,-3.79,-3.87,0,*5B
1512993964.99,55225,3.75,71812.0,-2.57,-3.87,-3.87,0,*55
1512993966.18,55226,3.81,71794.5,-2.57,-4.09,-4.09,0,*56
1512993967.4,55227,3.75,71762.5,-2.59,-4.65,-4.29,0,*51
1512993968.59,55228,3.75,71772.5,-2.57,-4.41,-4.13,0,*5F
1512993969.8,55229,3.75,71758.3,-2.57,-4.21,-4.13,0,*58
1512993970.98,55230,3.75,71760.3,-2.57,-4.17,-4.17,0,*51
1512993972.17,55231,3.75,71798.5,-2.57,-4.09,-3.95,0,*52
1512993973.4,55232,3.75,71808.0,-2.59,-3.79,-3.87,0,*5C
1512993974.67,55233,3.75,71838.5,-2.59,-3.55,-3.63,0,*59
1512993975.92,55234,3.75,71860.3,-2.59,-3.51,-3.39,0,*55
1512993977.13,55235,3.75,71912.0,-2.57,-3.39,-3.47,0,*5D
1512993978.36,55236,3.75,71788.8,-2.59,-3.79,-3.91,0,*5F
1512993979.56,55237,3.75,71656.0,-2.57,-4.13,-4.21,0,*57
1512993980.78,55238,3.75,71632.5,-2.59,-4.29,-4.33,0,*5C
1512993982.01,55239,3.75,71598.3,-2.59,-4.29,-4.29,0,*56
1512993983.22,55240,3.75,71634.0,-2.59,-4.45,-4.45,0,*58
1512993984.43,55241,3.75,71618.0,-2.59,-4.45,-4.45,0,*59
1512993985.65,55242,3.75,71670.5,-2.59,-4.17,-4.29,0,*57
1512993986.85,55243,3.75,71770.8,-2.61,-4.17,-4.13,0,*54
1512993988.06,55244,3.81,71768.0,-2.61,-3.75,-3.79,0,*5B
1512993989.29,55245,3.75,71696.3,-2.61,-4.01,-4.13,0,*55
1512993990.49,55246,3.81,71704.8,-2.61,-4.17,-4.29,0,*58
1512993991.68,55247,3.75,71732.8,-2.61,-4.17,-4.17,0,*54
1512993992.88,55248,3.81,71778.0,-2.61,-4.05,-4.13,0,*5C
1512993994.07,55249,3.75,71772.3,-2.61,-4.05,-4.05,0,*5A
1512993995.27,55250,3.75,71766.0,-2.61,-4.05,-4.05,0,*52
1512993996.5,55251,3.75,71776.0,-2.63,-3.95,-3.95,0,*51
1512993997.72,55252,3.75,71778.5,-2.63,-3.95,-3.95,0,*52
1512993998.92,55253,3.75,71774.5,-2.61,-3.87,-3.87,0,*51
1512994000.15,55254,3.75,71772.5,-2.63,-3.95,-3.95,0,*54
1512994001.38,55255,3.75,71766.5,-2.63,-3.95,-3.91,0,*51
1512994002.58,55256,3.75,71772.5,-2.61,-3.79,-3.87,0,*55
1512994003.79,55257,3.75,71770.5,-2.61,-3.75,-3.79,0,*59
1512994004.98,55258,3.75,71766.0,-2.61,-3.87,-3.83,0,*5E
1512994006.18,55259,3.75,71754.3,-2.61,-3.87,-3.87,0,*5B
1512994007.41,55260,3.81,71738.5,-2.63,-3.83,-3.91,0,*50
1512994008.61,55261,3.75,71774.5,-2.61,-3.79,-3.79,0,*50
1512994009.81,55262,3.75,71782.3,-2.61,-3.87,-3.87,0,*53
1512994011.02,55263,3.75,71746.8,-2.61,-3.91,-3.91,0,*52
1512994012.27,55264,3.75,71760.8,-2.61,-4.01,-4.01,0,*55
1512994013.48,55265,3.75,71816.3,-2.61,-3.91,-3.91,0,*54
1512994014.67,55266,3.75,71770.5,-2.61,-4.17,-4.17,0,*57
1512994015.89,55267,3.75,71678.5,-2.63,-4.05,-3.95,0,*5A
1512994017.12,55268,3.75,71666.0,-2.63,-3.95,-3.91,0,*5F
1512994018.35,55269,3.81,71712.0,-2.63,-3.95,-4.05,0,*54
1512994019.55,55270,3.75,71676.3,-2.61,-4.05,-4.13,0,*57
1512994020.74,55271,3.75,71678.3,-2.61,-4.13,-4.17,0,*55
1512994021.94,55272,3.75,71672.8,-2.61,-3.87,-3.91,0,*55
1512994023.17,55273,3.75,71638.5,-2.63,-3.83,-3.91,0,*52
1512994024.4,55274,3.75,71656.5,-2.63,-3.95,-4.05,0,*58
1512994025.66,55275,3.75,71680.0,-2.61,-4.01,-4.01,0,*55
1512994026.91,55276,3.75,71706.8,-2.61,-4.01,-4.01,0,*56
1512994028.14,55277,3.75,71686.0,-2.63,-3.95,-3.95,0,*55
1512994029.37,55278,3.75,71676.3,-2.63,-3.83,-3.91,0,*59
1512994030.59,55279,3.75,71712.5,-2.61,-3.75,-3.55,0,*5B
1512994031.82,55280,3.75,71744.8,-2.63,-3.83,-3.91,0,*5E
1512994033.05,55281,3.75,71664.8,-2.61,-3.79,-4.01,0,*56
1512994034.26,55282,3.75,71540.5,-2.61,-3.79,-3.91,0,*5B
1512994035.46,55283,3.75,71638.3,-2.61,-4.13,-4.13,0,*5C
1512994036.69,55284,3.75,71602.5,-2.61,-3.91,-4.01,0,*55
1512994037.92,55285,3.75,71692.0,-2.61,-4.01,-4.05,0,*5E
1512994039.12,55286,3.75,71738.5,-2.61,-3.79,-3.87,0,*58
1512994040.36,55287,3.75,71726.5,-2.61,-3.67,-3.67,0,*58
1512994041.6,55288,3.75,71722.5,-2.61,-3.63,-3.55,0,*52
1512994042.84,55289,3.75,71760.5,-2.61,-3.51,-3.43,0,*55
1512994044.11,55290,3.75,71720.0,-2.59,-3.63,-3.55,0,*50
1512994045.31,55291,3.75,71732.3,-2.61,-3.87,-3.79,0,*5E
1512994046.55,55292,3.75,71732.3,-2.61,-3.51,-3.63,0,*5D
1512994047.79,55293,3.81,71732.0,-2.61,-3.63,-3.63,0,*5D
1512994049.05,55294,3.81,71742.3,-2.59,-3.55,-3.63,0,*54
1512994050.29,55295,3.75,71750.8,-2.59,-3.79,-3.75,0,*5C
1512994051.52,55296,3.75,71724.3,-2.57,-3.71,-3.71,0,*5D
1512994052.75,55297,3.75,71736.5,-2.59,-3.75,-3.87,0,*5F
1512994053.95,55298,3.75,71766.0,-2.57,-3.83,-3.75,0,*5A
1512994055.19,55299,3.75,71798.0,-2.57,-3.71,-3.59,0,*58
1512994056.42,55300,3.75,71738.8,-2.59,-4.13,-4.05,0,*5A
1512994057.66,55301,3.75,71734.8,-2.59,-4.05,-4.01,0,*58
1512994058.9,55302,3.75,71770.5,-2.59,-3.91,-3.91,0,*5F
1512994060.13,55303,3.75,71772.5,-2.59,-3.79,-3.79,0,*5E
1512994061.36,55304,3.75,71832.3,-2.59,-3.91,-3.91,0,*59
1512994062.59,55305,3.75,71818.0,-2.59,-3.91,-3.91,0,*58
1512994063.87,55306,3.75,71802.5,-2.59,-4.01,-4.01,0,*5B
1512994065.15,55307,3.75,71768.3,-2.59,-4.01,-4.01,0,*5A
1512994066.38,55308,3.75,71740.0,-2.59,-4.13,-4.13,0,*55
1512994067.6,55309,3.75,71790.3,-2.59,-4.13,-4.13,0,*54
1512994068.82,55310,3.75,71816.0,-2.59,-4.17,-4.13,0,*58
1512994070.05,55311,3.75,71822.3,-2.59,-3.87,-3.79,0,*5C
1512994071.31,55312,3.75,71822.8,-2.59,-3.55,-3.63,0,*5B
1512994072.58,55313,3.75,71804.8,-2.59,-3.43,-3.51,0,*5C
1512994073.85,55314,3.75,71784.0,-2.59,-3.63,-3.67,0,*5C
1512994075.07,55315,3.75,71690.0,-2.59,-3.87,-3.87,0,*59
1512994076.32,55316,3.75,71748.5,-2.59,-4.05,-4.01,0,*5E
1512994077.56,55317,3.75,71792.8,-2.59,-4.05,-4.01,0,*5F
1512994078.83,55318,3.75,71808.0,-2.59,-3.67,-3.63,0,*50
1512994080.06,55319,3.75,71778.8,-2.59,-3.79,-3.75,0,*59
1512994081.26,55320,3.75,71704.8,-2.57,-4.21,-4.09,0,*5B
1512994082.49,55321,3.75,71734.5,-2.59,-3.79,-3.75,0,*52
1512994083.72,55322,3.75,71686.5,-2.59,-3.87,-3.87,0,*5D
1512994084.94,55323,3.75,71582.3,-2.59,-4.17,-4.25,0,*5D
1512994086.17,55324,3.75,71592.5,-2.59,-4.29,-4.29,0,*5B
1512994087.39,55325,3.75,71542.8,-2.59,-4.29,-4.29,0,*5A
1512994088.59,55326,3.81,71456.8,-2.61,-4.33,-4.33,0,*52
1512994089.81,55327,3.75,71530.3,-2.63,-4.49,-4.57,0,*5E
1512994091.02,55328,3.75,71612.5,-2.63,-4.45,-4.45,0,*5E
1512994092.22,55329,3.81,71674.5,-2.61,-4.05,-4.05,0,*5D
1512994093.44,55330,3.75,71632.8,-2.63,-4.05,-4.17,0,*54
1512994094.62,55331,3.75,71598.5,-2.61,-4.45,-4.45,0,*54
1512994095.85,55332,3.75,71686.0,-2.61,-4.05,-4.01,0,*53
1512994097.04,55333,3.75,71688.5,-2.61,-4.05,-4.13,0,*51
1512994098.27,55334,3.75,71618.5,-2.63,-4.05,-4.05,0,*53
1512994099.49,55335,3.75,71644.5,-2.63,-4.05,-3.95,0,*5C
1512994100.72,55336,3.75,71622.8,-2.63,-3.83,-3.91,0,*52
1512994101.96,55337,3.75,71600.8,-2.63,-3.91,-3.91,0,*50
1512994103.19,55338,3.75,71644.3,-2.63,-3.83,-3.79,0,*5A
1512994104.42,55339,3.75,71690.0,-2.63,-3.83,-3.83,0,*5E
1512994105.68,55340,3.75,71686.5,-2.63,-3.71,-3.71,0,*50
1512994106.95,55341,3.75,71678.3,-2.63,-3.67,-3.67,0,*51
1512994108.15,55342,3.75,71718.3,-2.61,-3.75,-3.79,0,*5C
1512994109.42,55343,3.75,71666.8,-2.63,-3.59,-3.67,0,*5E
1512994110.67,55344,3.81,71624.8,-2.63,-3.71,-3.79,0,*5C
1512994111.91,55345,3.75,71616.8,-2.61,-3.67,-3.67,0,*57
1512994113.12,55346,3.75,71696.3,-2.61,-3.79,-3.79,0,*54
1512994114.35,55347,3.75,71722.8,-2.61,-3.55,-3.63,0,*50
1512994115.57,55348,3.75,71700.0,-2.61,-3.39,-3.43,0,*57
1512994116.84,55349,3.75,71714.0,-2.59,-3.63,-3.63,0,*50